contact:dominique.lefevre@mio.osupytheas.fr, maurice.libes@osupytheas.fr, didier.mallarino@osupytheas.fr
Project:EMSO http://www.emso-fr.org/EMSO-France
Depth: 2436.0 m
Title:EMSO Ligure Ouest : Data MII capteur AQUADOPP
Date,Latitude,Longitude,X_East,Y_North,Z_Up,Amplitude_X,Amplitude_Y,Amplitude_Z,Batterie,SoundSpeed,Heading,Pitch,Roll,Pressure,TIS,Speed,Direction
, degrees North, degrees East, m.s-1, m.s-1,m.s-1, 1, 1, 1, Volt, m.s-1, degree, degree, degree, dbar, degree_C, m.s-1, degree
2023-09-30T00:04:03,42.805,6.029,0.031,-0.049,-0.026,103.0,101.0,101.0,13.4,1505.2,349.3,-0.8,1.8,2471.489,13.28,0.057,147.7
2023-09-30T00:07:03,42.805,6.029,0.052,-0.041,-0.018,102.0,102.0,101.0,13.3,1505.2,346.2,-0.8,1.8,2471.463,13.28,0.066,128.3
2023-09-30T00:10:03,42.805,6.029,0.031,-0.073,-0.057,101.0,101.0,102.0,13.3,1505.2,340.8,-0.8,1.8,2471.452,13.28,0.079,157.0
2023-09-30T00:13:03,42.805,6.029,0.047,-0.044,-0.017,102.0,101.0,101.0,13.4,1505.2,342.5,-0.7,1.8,2471.497,13.29,0.064,133.1
2023-09-30T00:16:03,42.805,6.029,0.035,-0.04,-0.016,103.0,102.0,102.0,13.3,1505.2,357.0,-0.7,1.8,2471.444,13.29,0.053,138.8
2023-09-30T00:19:03,42.805,6.029,0.031,-0.033,-0.019,102.0,102.0,102.0,13.3,1505.2,350.5,-0.8,1.8,2471.452,13.29,0.045,136.8
2023-09-30T00:22:03,42.805,6.029,0.038,-0.032,-0.043,103.0,102.0,101.0,13.4,1505.2,327.5,-0.8,1.8,2471.454,13.29,0.049,130.1
2023-09-30T00:25:03,42.805,6.029,0.056,-0.018,-0.009,103.0,102.0,101.0,13.4,1505.2,331.6,-0.8,1.8,2471.423,13.29,0.058,107.8
2023-09-30T00:28:03,42.805,6.029,0.032,-0.015,-0.043,102.0,101.0,101.0,13.4,1505.2,334.7,-0.8,1.8,2471.445,13.29,0.035,115.1
2023-09-30T00:31:03,42.805,6.029,0.018,-0.037,-0.04,102.0,100.0,102.0,13.3,1505.2,350.1,-0.8,1.8,2471.436,13.29,0.041,154.1
2023-09-30T00:34:03,42.805,6.029,0.028,-0.045,-0.035,101.0,102.0,102.0,13.4,1505.2,353.8,-0.8,1.8,2471.414,13.29,0.053,148.1
2023-09-30T00:37:03,42.805,6.029,0.054,-0.042,-0.027,101.0,101.0,101.0,13.4,1505.2,337.4,-0.7,1.8,2471.403,13.29,0.068,127.9
2023-09-30T00:40:03,42.805,6.029,0.062,-0.03,-0.002,102.0,101.0,101.0,13.4,1505.2,341.9,-0.7,1.9,2471.433,13.29,0.068,115.8
2023-09-30T00:43:03,42.805,6.029,0.02,-0.037,-0.032,102.0,101.0,101.0,13.4,1505.2,327.8,-0.8,1.8,2471.382,13.29,0.042,151.6
2023-09-30T00:46:03,42.805,6.029,0.029,-0.021,-0.013,103.0,101.0,102.0,13.4,1505.2,340.9,-0.8,1.8,2471.366,13.29,0.035,125.9
2023-09-30T00:49:03,42.805,6.029,0.026,-0.026,-0.021,102.0,102.0,102.0,13.4,1505.2,338.4,-0.8,1.8,2471.411,13.29,0.036,135.0
2023-09-30T00:52:03,42.805,6.029,0.035,-0.01,0.007,102.0,102.0,102.0,13.4,1505.2,345.7,-0.8,1.8,2471.367,13.29,0.036,105.9
2023-09-30T00:55:03,42.805,6.029,0.016,-0.017,-0.039,102.0,102.0,101.0,13.4,1505.2,357.9,-0.7,1.8,2471.373,13.29,0.023,136.7
2023-09-30T00:58:03,42.805,6.029,0.023,-0.026,-0.007,102.0,102.0,102.0,13.3,1505.2,332.2,-0.8,1.8,2471.4,13.29,0.034,138.5
2023-09-30T01:04:03,42.805,6.029,0.032,-0.014,0.015,104.0,104.0,103.0,13.4,1505.2,334.7,-0.7,1.8,2471.45,13.28,0.034,113.6
2023-09-30T01:07:03,42.805,6.029,0.054,-0.043,-0.012,102.0,102.0,102.0,13.4,1505.2,345.3,-0.8,1.8,2471.427,13.28,0.069,128.5
2023-09-30T01:10:03,42.805,6.029,0.059,-0.035,-0.044,103.0,102.0,101.0,13.3,1505.2,336.1,-0.8,1.8,2471.414,13.28,0.068,120.7
2023-09-30T01:13:03,42.805,6.029,0.048,-0.018,-0.039,102.0,103.0,101.0,13.4,1505.2,329.1,-0.8,1.8,2471.438,13.29,0.051,110.6
2023-09-30T01:16:03,42.805,6.029,0.053,-0.047,-0.048,101.0,102.0,101.0,13.3,1505.2,336.2,-0.7,1.8,2471.394,13.29,0.07,131.6
2023-09-30T01:19:03,42.805,6.029,0.025,-0.021,-0.012,103.0,101.0,101.0,13.3,1505.2,352.5,-0.8,1.8,2471.392,13.29,0.032,130.0
2023-09-30T01:22:03,42.805,6.029,0.02,-0.04,-0.037,102.0,101.0,101.0,13.4,1505.2,344.3,-0.7,1.8,2471.365,13.29,0.044,153.4
2023-09-30T01:25:03,42.805,6.029,0.035,-0.02,-0.013,102.0,101.0,101.0,13.4,1505.2,344.9,-0.8,1.8,2471.381,13.29,0.04,119.7
2023-09-30T01:28:03,42.805,6.029,0.015,-0.033,-0.021,103.0,102.0,102.0,13.4,1505.2,356.9,-0.7,1.8,2471.36,13.29,0.036,155.6
2023-09-30T01:31:03,42.805,6.029,0.066,-0.074,-0.046,102.0,101.0,101.0,13.4,1505.2,345.9,-0.8,1.8,2471.352,13.29,0.099,138.3
2023-09-30T01:34:03,42.805,6.029,0.044,-0.042,-0.015,103.0,103.0,101.0,13.4,1505.2,339.7,-0.8,1.8,2471.399,13.29,0.06,133.7
2023-09-30T01:37:03,42.805,6.029,0.051,-0.083,-0.04,103.0,102.0,101.0,13.4,1505.2,345.0,-0.8,1.8,2471.371,13.29,0.097,148.4
2023-09-30T01:40:03,42.805,6.029,0.021,-0.063,-0.061,102.0,102.0,101.0,13.4,1505.2,356.9,-0.8,1.8,2471.358,13.29,0.066,161.6
2023-09-30T01:43:03,42.805,6.029,0.033,-0.035,-0.041,102.0,102.0,102.0,13.3,1505.2,332.2,-0.8,1.8,2471.356,13.29,0.048,136.7
2023-09-30T01:46:03,42.805,6.029,0.018,-0.005,-0.008,103.0,102.0,102.0,13.4,1505.2,337.0,-0.8,1.8,2471.37,13.29,0.018,105.5
2023-09-30T01:49:03,42.805,6.029,0.025,-0.035,-0.059,102.0,101.0,101.0,13.3,1505.2,338.2,-0.8,1.9,2471.368,13.29,0.043,144.5
2023-09-30T01:52:03,42.805,6.029,0.04,-0.011,-0.023,102.0,102.0,102.0,13.3,1505.2,328.7,-0.7,1.8,2471.384,13.29,0.041,105.4
2023-09-30T01:55:03,42.805,6.029,0.03,-0.024,0.001,103.0,102.0,102.0,13.4,1505.2,347.3,-0.8,1.8,2471.383,13.29,0.038,128.7
2023-09-30T01:58:03,42.805,6.029,0.064,-0.026,-0.034,103.0,102.0,101.0,13.4,1505.2,328.8,-0.8,1.8,2471.36,13.29,0.069,112.1
2023-09-30T02:04:03,42.805,6.029,0.009,-0.017,0.001,102.0,102.0,101.0,13.4,1505.2,355.8,-0.7,1.8,2471.418,13.28,0.019,152.1
2023-09-30T02:07:03,42.805,6.029,0.012,-0.033,-0.035,103.0,103.0,101.0,13.4,1505.2,348.6,-0.8,1.9,2471.391,13.28,0.035,160.0
2023-09-30T02:10:03,42.805,6.029,0.041,-0.02,0.015,102.0,102.0,101.0,13.4,1505.2,329.4,-0.8,1.8,2471.421,13.28,0.045,116.0
2023-09-30T02:13:03,42.805,6.029,0.05,-0.028,-0.028,102.0,103.0,102.0,13.3,1505.2,333.4,-0.8,1.8,2471.397,13.29,0.057,119.3
2023-09-30T02:16:03,42.805,6.029,0.033,-0.035,-0.02,102.0,102.0,101.0,13.4,1505.2,349.0,-0.7,1.8,2471.401,13.29,0.048,136.7
2023-09-30T02:19:03,42.805,6.029,0.04,-0.035,-0.043,102.0,102.0,101.0,13.4,1505.2,346.2,-0.8,1.8,2471.418,13.29,0.053,131.2
2023-09-30T02:22:03,42.805,6.029,0.036,-0.04,-0.001,101.0,103.0,102.0,13.4,1505.2,347.4,-0.8,1.8,2471.383,13.29,0.053,138.0
2023-09-30T02:25:03,42.805,6.029,0.018,-0.036,-0.029,103.0,102.0,101.0,13.4,1505.2,350.8,-0.8,1.8,2471.406,13.29,0.04,153.4
2023-09-30T02:28:03,42.805,6.029,0.06,-0.052,-0.015,104.0,102.0,102.0,13.4,1505.2,338.5,-0.8,1.8,2471.392,13.29,0.079,130.9
2023-09-30T02:31:03,42.805,6.029,0.038,-0.027,-0.011,102.0,101.0,101.0,13.4,1505.2,352.4,-0.8,1.8,2471.38,13.29,0.046,125.4
2023-09-30T02:34:03,42.805,6.029,0.03,-0.03,-0.029,102.0,102.0,101.0,13.4,1505.2,333.0,-0.7,1.8,2471.396,13.29,0.042,135.0
2023-09-30T02:37:03,42.805,6.029,0.033,-0.05,-0.067,102.0,102.0,101.0,13.3,1505.2,335.2,-0.8,1.8,2471.395,13.29,0.059,146.6
2023-09-30T02:40:03,42.805,6.029,0.039,-0.022,-0.027,102.0,101.0,101.0,13.3,1505.2,336.4,-0.8,1.8,2471.39,13.29,0.044,119.4
2023-09-30T02:43:03,42.805,6.029,0.036,-0.018,-0.018,102.0,103.0,101.0,13.3,1505.2,334.9,-0.8,1.8,2471.364,13.29,0.04,116.6
2023-09-30T02:46:03,42.805,6.029,0.056,-0.037,-0.018,104.0,102.0,100.0,13.3,1505.2,347.5,-0.8,1.8,2471.376,13.29,0.067,123.5
2023-09-30T02:49:03,42.805,6.029,0.022,-0.036,-0.036,102.0,102.0,101.0,13.4,1505.2,335.1,-0.8,1.8,2471.39,13.29,0.042,148.6
2023-09-30T02:52:03,42.805,6.029,0.037,-0.045,-0.026,102.0,103.0,102.0,13.4,1505.2,340.4,-0.8,1.8,2471.359,13.29,0.058,140.6
2023-09-30T02:55:03,42.805,6.029,0.042,-0.051,-0.042,102.0,102.0,101.0,13.3,1505.2,341.2,-0.8,1.8,2471.405,13.29,0.066,140.5
2023-09-30T02:58:03,42.805,6.029,0.047,-0.046,-0.041,102.0,101.0,101.0,13.4,1505.2,352.4,-0.8,1.8,2471.356,13.29,0.065,134.4
2023-09-30T03:04:03,42.805,6.029,0.036,-0.055,0.001,102.0,102.0,101.0,13.4,1505.2,350.5,-0.8,1.8,2471.408,13.28,0.065,146.8
2023-09-30T03:07:03,42.805,6.029,0.056,-0.054,-0.034,103.0,101.0,101.0,13.4,1505.2,339.4,-0.8,1.8,2471.394,13.28,0.077,134.0
2023-09-30T03:10:03,42.805,6.029,0.039,-0.07,-0.019,101.0,103.0,102.0,13.3,1505.2,355.9,-0.7,1.8,2471.392,13.28,0.08,150.9
2023-09-30T03:13:03,42.805,6.029,0.065,-0.058,-0.075,102.0,101.0,101.0,13.3,1505.2,331.3,-0.8,1.8,2471.381,13.29,0.087,131.7
2023-09-30T03:16:03,42.805,6.029,0.082,-0.054,0.025,102.0,101.0,102.0,13.4,1505.2,335.2,-0.8,1.8,2471.433,13.29,0.098,123.4
2023-09-30T03:19:03,42.805,6.029,0.043,-0.056,-0.028,101.0,100.0,103.0,13.4,1505.2,347.4,-0.8,1.8,2471.425,13.29,0.07,142.5
2023-09-30T03:22:03,42.805,6.029,0.018,-0.024,-0.032,102.0,102.0,101.0,13.4,1505.2,336.2,-0.7,1.8,2471.405,13.29,0.03,143.1
2023-09-30T03:25:03,42.805,6.029,0.058,-0.038,-0.017,102.0,101.0,102.0,13.4,1505.2,338.5,-0.8,1.8,2471.372,13.29,0.069,123.2
2023-09-30T03:28:03,42.805,6.029,0.045,-0.015,-0.003,103.0,102.0,102.0,13.4,1505.2,332.5,-0.8,1.8,2471.391,13.29,0.047,108.4
2023-09-30T03:31:03,42.805,6.029,0.043,-0.052,-0.022,103.0,102.0,102.0,13.4,1505.2,350.5,-0.8,1.8,2471.382,13.29,0.067,140.4
2023-09-30T03:34:03,42.805,6.029,0.043,-0.053,-0.007,102.0,102.0,102.0,13.3,1505.2,346.7,-0.7,1.8,2471.422,13.29,0.068,140.9
2023-09-30T03:37:03,42.805,6.029,0.047,-0.029,0.002,101.0,101.0,102.0,13.4,1505.2,341.0,-0.8,1.8,2471.406,13.29,0.055,121.7
2023-09-30T03:40:03,42.805,6.029,0.031,-0.054,-0.059,102.0,102.0,101.0,13.4,1505.2,340.0,-0.8,1.8,2471.433,13.29,0.062,150.1
2023-09-30T03:43:03,42.805,6.029,0.036,-0.041,-0.016,101.0,103.0,101.0,13.3,1505.2,340.0,-0.8,1.8,2471.437,13.29,0.054,138.7
2023-09-30T03:46:03,42.805,6.029,0.036,-0.061,-0.018,102.0,103.0,101.0,13.3,1505.2,354.9,-0.8,1.8,2471.424,13.29,0.07,149.4
2023-09-30T03:49:03,42.805,6.029,0.055,-0.015,-0.004,103.0,101.0,101.0,13.3,1505.2,330.3,-0.8,1.9,2471.416,13.29,0.057,105.3
2023-09-30T03:52:03,42.805,6.029,0.019,-0.028,-0.021,102.0,102.0,102.0,13.3,1505.2,345.4,-0.8,1.8,2471.413,13.29,0.033,145.8
2023-09-30T03:55:03,42.805,6.029,0.055,-0.035,-0.006,101.0,101.0,102.0,13.4,1505.2,339.1,-0.7,1.8,2471.404,13.29,0.065,122.5
2023-09-30T03:58:03,42.805,6.029,0.016,-0.023,-0.038,100.0,102.0,102.0,13.3,1505.2,349.0,-0.8,1.8,2471.435,13.29,0.028,145.2
2023-09-30T04:04:03,42.805,6.029,0.042,-0.037,-0.007,104.0,102.0,102.0,13.3,1505.2,353.2,-0.8,1.8,2471.462,13.28,0.055,131.4
2023-09-30T04:07:03,42.805,6.029,0.028,-0.036,-0.028,101.0,101.0,102.0,13.3,1505.2,341.2,-0.8,1.8,2471.476,13.28,0.045,142.1
2023-09-30T04:10:03,42.805,6.029,0.045,-0.044,-0.028,103.0,101.0,102.0,13.4,1505.2,335.5,-0.7,1.8,2471.488,13.28,0.062,134.4
2023-09-30T04:13:03,42.805,6.029,0.01,-0.05,-0.052,101.0,102.0,101.0,13.4,1505.2,357.0,-0.8,1.8,2471.465,13.29,0.05,168.7
2023-09-30T04:16:03,42.805,6.029,0.059,-0.043,-0.015,102.0,102.0,102.0,13.3,1505.2,339.5,-0.7,1.8,2471.453,13.29,0.073,126.1
2023-09-30T04:19:03,42.805,6.029,0.045,-0.033,-0.055,103.0,102.0,100.0,13.3,1505.2,335.5,-0.8,1.8,2471.437,13.29,0.055,126.3
2023-09-30T04:22:03,42.805,6.029,0.054,-0.051,-0.04,103.0,102.0,101.0,13.4,1505.2,341.0,-0.8,1.8,2471.454,13.29,0.074,133.4
2023-09-30T04:25:03,42.805,6.029,0.064,-0.05,-0.025,102.0,102.0,101.0,13.3,1505.2,340.2,-0.8,1.8,2471.467,13.29,0.081,128.0
2023-09-30T04:28:03,42.805,6.029,0.024,-0.027,-0.029,103.0,103.0,100.0,13.3,1505.2,346.7,-0.7,1.8,2471.459,13.29,0.036,138.4
2023-09-30T04:31:03,42.805,6.029,0.051,-0.024,-0.024,102.0,102.0,101.0,13.4,1505.2,327.5,-0.8,1.8,2471.44,13.29,0.056,115.2
2023-09-30T04:34:03,42.805,6.029,0.068,-0.068,-0.025,103.0,103.0,101.0,13.4,1505.2,333.0,-0.8,1.8,2471.477,13.29,0.096,135.0
2023-09-30T04:37:03,42.805,6.029,0.044,-0.063,-0.026,102.0,101.0,101.0,13.3,1505.2,336.8,-0.8,1.8,2471.501,13.29,0.076,145.1
2023-09-30T04:40:03,42.805,6.029,0.03,-0.039,-0.037,103.0,102.0,101.0,13.4,1505.2,348.1,-0.7,1.8,2471.465,13.29,0.049,142.4
2023-09-30T04:43:03,42.805,6.029,0.056,-0.039,0.002,102.0,102.0,101.0,13.3,1505.2,338.0,-0.8,1.8,2471.501,13.29,0.068,124.9
2023-09-30T04:46:03,42.805,6.029,0.009,-0.021,-0.036,103.0,102.0,101.0,13.3,1505.2,342.5,-0.8,1.8,2471.476,13.29,0.022,156.8
2023-09-30T04:49:03,42.805,6.029,0.032,-0.061,-0.039,102.0,103.0,101.0,13.4,1505.2,357.9,-0.8,1.8,2471.496,13.29,0.068,152.3
2023-09-30T04:52:03,42.805,6.029,0.004,-0.057,-0.048,102.0,103.0,101.0,13.3,1505.2,357.9,-0.8,1.8,2471.469,13.29,0.057,176.0
2023-09-30T04:55:03,42.805,6.029,0.044,-0.049,-0.019,102.0,102.0,101.0,13.3,1505.2,348.1,-0.8,1.8,2471.461,13.29,0.065,138.1
2023-09-30T04:58:03,42.805,6.029,0.043,-0.055,-0.02,103.0,102.0,102.0,13.4,1505.2,353.7,-0.8,1.8,2471.512,13.29,0.069,142.0
2023-09-30T05:04:03,42.805,6.029,0.03,-0.032,-0.039,102.0,102.0,101.0,13.4,1505.2,334.9,-0.8,1.8,2471.564,13.28,0.043,136.9
2023-09-30T05:07:03,42.805,6.029,0.043,-0.028,-0.013,101.0,104.0,101.0,13.4,1505.2,343.3,-0.8,1.8,2471.595,13.28,0.051,123.1
2023-09-30T05:10:03,42.805,6.029,0.03,-0.053,-0.032,103.0,102.0,101.0,13.4,1505.2,357.0,-0.7,1.8,2471.538,13.28,0.06,150.5
2023-09-30T05:13:03,42.805,6.029,0.045,-0.058,-0.015,103.0,102.0,102.0,13.4,1505.2,351.0,-0.8,1.8,2471.573,13.28,0.073,142.2
2023-09-30T05:16:03,42.805,6.029,0.037,-0.045,-0.029,102.0,102.0,101.0,13.4,1505.2,331.8,-0.8,1.8,2471.528,13.29,0.058,140.6
2023-09-30T05:19:03,42.805,6.029,0.03,-0.022,-0.007,102.0,102.0,101.0,13.4,1505.2,336.8,-0.8,1.8,2471.559,13.29,0.037,126.3
2023-09-30T05:22:03,42.805,6.029,0.05,-0.058,-0.053,102.0,102.0,101.0,13.4,1505.2,339.7,-0.8,1.8,2471.523,13.29,0.076,139.2
2023-09-30T05:25:03,42.805,6.029,0.04,-0.049,-0.004,102.0,102.0,101.0,13.3,1505.2,343.0,-0.8,1.8,2471.544,13.29,0.063,140.8
2023-09-30T05:28:03,42.805,6.029,0.055,-0.022,-0.023,102.0,102.0,102.0,13.4,1505.2,332.2,-0.8,1.8,2471.561,13.29,0.059,111.8
2023-09-30T05:31:03,42.805,6.029,0.034,-0.012,0.0,103.0,102.0,101.0,13.3,1505.2,336.3,-0.8,1.8,2471.536,13.29,0.036,109.4
2023-09-30T05:34:03,42.805,6.029,0.05,-0.062,-0.044,102.0,102.0,101.0,13.3,1505.2,342.1,-0.8,1.8,2471.535,13.29,0.079,141.1
2023-09-30T05:37:03,42.805,6.029,0.029,-0.048,-0.041,106.0,101.0,101.0,13.3,1505.2,346.4,-0.7,1.8,2471.531,13.29,0.056,148.9
2023-09-30T05:40:03,42.805,6.029,0.044,-0.046,-0.081,102.0,103.0,101.0,13.3,1505.2,341.9,-0.7,1.8,2471.545,13.29,0.063,136.3
2023-09-30T05:43:03,42.805,6.029,0.045,-0.038,-0.022,103.0,103.0,101.0,13.4,1505.2,338.2,-0.8,1.8,2471.557,13.29,0.058,130.2
2023-09-30T05:46:03,42.805,6.029,0.04,-0.061,-0.021,103.0,101.0,102.0,13.3,1505.2,342.7,-0.8,1.8,2471.534,13.29,0.072,146.7
2023-09-30T05:49:03,42.805,6.029,0.025,-0.062,-0.032,102.0,102.0,102.0,13.3,1505.2,348.0,-0.8,1.8,2471.574,13.29,0.066,158.0
2023-09-30T05:52:03,42.805,6.029,0.055,-0.051,-0.034,101.0,103.0,101.0,13.4,1505.2,336.3,-0.8,1.8,2471.585,13.29,0.075,132.8
2023-09-30T05:55:03,42.805,6.029,0.035,-0.051,-0.042,102.0,101.0,102.0,13.3,1505.2,354.7,-0.7,1.8,2471.523,13.29,0.061,145.5
2023-09-30T05:58:03,42.805,6.029,0.046,-0.041,-0.008,103.0,100.0,102.0,13.4,1505.2,330.6,-0.8,1.8,2471.612,13.29,0.061,131.7
2023-09-30T06:04:03,42.805,6.029,0.036,-0.038,-0.009,102.0,101.0,102.0,13.4,1505.2,345.4,-0.7,1.8,2471.617,13.28,0.052,136.5
2023-09-30T06:07:03,42.805,6.029,0.045,-0.039,-0.019,102.0,102.0,101.0,13.4,1505.2,335.5,-0.8,1.8,2471.598,13.28,0.059,130.9
2023-09-30T06:10:03,42.805,6.029,0.061,-0.046,-0.006,103.0,102.0,101.0,13.3,1505.2,331.0,-0.8,1.8,2471.584,13.28,0.076,127.0
2023-09-30T06:13:03,42.805,6.029,0.037,-0.009,-0.026,102.0,103.0,101.0,13.4,1505.2,337.3,-0.8,1.8,2471.581,13.29,0.038,103.7
2023-09-30T06:16:03,42.805,6.029,0.031,-0.023,-0.053,102.0,103.0,101.0,13.4,1505.2,334.8,-0.8,1.8,2471.59,13.29,0.038,126.6
2023-09-30T06:19:03,42.805,6.029,0.022,-0.048,-0.07,103.0,101.0,101.0,13.4,1505.2,340.8,-0.7,1.8,2471.595,13.29,0.052,155.4
2023-09-30T06:22:03,42.805,6.029,0.064,-0.031,-0.025,102.0,102.0,101.0,13.4,1505.2,331.5,-0.7,1.8,2471.625,13.29,0.071,115.8
2023-09-30T06:25:03,42.805,6.029,0.057,-0.05,-0.017,102.0,103.0,102.0,13.4,1505.2,333.0,-0.8,1.8,2471.591,13.29,0.075,131.3
2023-09-30T06:28:03,42.805,6.029,0.041,-0.043,-0.022,102.0,102.0,102.0,13.3,1505.2,341.0,-0.8,1.8,2471.575,13.29,0.059,136.4
2023-09-30T06:31:03,42.805,6.029,0.048,-0.05,-0.009,103.0,102.0,101.0,13.4,1505.2,335.8,-0.7,1.8,2471.599,13.29,0.069,136.2
2023-09-30T06:34:03,42.805,6.029,0.036,-0.05,-0.046,102.0,103.0,102.0,13.4,1505.2,353.8,-0.8,1.9,2471.593,13.29,0.061,144.2
2023-09-30T06:37:03,42.805,6.029,0.046,-0.034,-0.011,102.0,102.0,101.0,13.3,1505.2,343.3,-0.8,1.8,2471.582,13.29,0.057,126.5
2023-09-30T06:40:03,42.805,6.029,0.042,-0.032,-0.016,103.0,103.0,102.0,13.4,1505.2,341.5,-0.8,1.8,2471.572,13.29,0.052,127.3
2023-09-30T06:43:03,42.805,6.029,0.043,-0.041,-0.032,103.0,104.0,101.0,13.3,1505.2,337.3,-0.8,1.8,2471.611,13.29,0.059,133.6
2023-09-30T06:46:03,42.805,6.029,0.027,-0.017,-0.009,103.0,102.0,102.0,13.3,1505.2,341.5,-0.8,1.8,2471.574,13.29,0.031,122.2
2023-09-30T06:49:03,42.805,6.029,0.061,-0.044,-0.03,102.0,101.0,102.0,13.4,1505.2,339.5,-0.8,1.8,2471.6,13.29,0.075,125.8
2023-09-30T06:52:03,42.805,6.029,0.038,-0.035,-0.03,102.0,102.0,101.0,13.3,1505.2,353.2,-0.8,1.8,2471.621,13.29,0.051,132.6
2023-09-30T06:55:03,42.805,6.029,0.026,-0.022,0.009,102.0,102.0,101.0,13.4,1505.2,341.5,-0.7,1.8,2471.605,13.29,0.034,130.2
2023-09-30T06:58:03,42.805,6.029,0.041,-0.05,0.013,103.0,102.0,101.0,13.3,1505.2,354.6,-0.7,1.8,2471.579,13.29,0.064,140.7
2023-09-30T07:04:03,42.805,6.029,0.054,-0.025,0.005,102.0,102.0,101.0,13.3,1505.2,338.0,-0.8,1.8,2471.624,13.28,0.059,114.8
2023-09-30T07:07:03,42.805,6.029,0.042,-0.047,-0.025,103.0,101.0,102.0,13.4,1505.2,344.3,-0.8,1.8,2471.618,13.28,0.063,138.2
2023-09-30T07:10:03,42.805,6.029,0.029,-0.051,-0.055,103.0,102.0,101.0,13.4,1505.2,345.5,-0.8,1.8,2471.607,13.28,0.058,150.4
2023-09-30T07:13:03,42.805,6.029,0.003,-0.04,-0.072,102.0,103.0,101.0,13.4,1505.2,334.3,-0.7,1.8,2471.623,13.29,0.04,175.7
2023-09-30T07:16:03,42.805,6.029,0.06,-0.03,-0.04,102.0,102.0,102.0,13.4,1505.2,341.2,-0.8,1.8,2471.596,13.29,0.067,116.6
2023-09-30T07:19:03,42.805,6.029,0.039,-0.041,-0.03,103.0,102.0,101.0,13.3,1505.2,340.9,-0.8,1.8,2471.617,13.29,0.056,136.4
2023-09-30T07:22:03,42.805,6.029,0.042,-0.048,-0.029,102.0,102.0,101.0,13.3,1505.2,334.6,-0.8,1.8,2471.577,13.29,0.063,138.8
2023-09-30T07:25:03,42.805,6.029,0.033,-0.048,-0.003,102.0,102.0,101.0,13.3,1505.2,336.3,-0.8,1.8,2471.624,13.29,0.058,145.5
2023-09-30T07:28:03,42.805,6.029,0.025,-0.062,-0.075,102.0,101.0,102.0,13.4,1505.2,347.0,-0.8,1.8,2471.611,13.29,0.066,158.0
2023-09-30T07:31:03,42.805,6.029,0.043,-0.031,-0.035,104.0,102.0,102.0,13.4,1505.2,333.8,-0.8,1.8,2471.636,13.29,0.053,125.8
2023-09-30T07:34:03,42.805,6.029,0.025,-0.046,-0.031,102.0,102.0,101.0,13.4,1505.2,348.0,-0.8,1.8,2471.591,13.29,0.052,151.5
2023-09-30T07:37:03,42.805,6.029,0.039,-0.049,-0.018,102.0,102.0,102.0,13.4,1505.2,344.8,-0.8,1.8,2471.564,13.29,0.062,141.5
2023-09-30T07:40:03,42.805,6.029,0.035,-0.027,-0.006,102.0,102.0,101.0,13.4,1505.2,346.6,-0.8,1.8,2471.598,13.29,0.044,127.7
2023-09-30T07:43:03,42.805,6.029,0.059,-0.059,-0.029,103.0,102.0,101.0,13.4,1505.2,334.3,-0.8,1.8,2471.576,13.29,0.083,135.0
2023-09-30T07:46:03,42.805,6.029,0.047,-0.032,-0.003,103.0,103.0,101.0,13.4,1505.2,347.4,-0.8,1.8,2471.586,13.29,0.056,124.2
2023-09-30T07:49:03,42.805,6.029,0.044,-0.024,-0.035,102.0,103.0,101.0,13.3,1505.2,333.0,-0.8,1.8,2471.6,13.29,0.05,118.6
2023-09-30T07:52:03,42.805,6.029,0.021,-0.046,-0.044,102.0,102.0,102.0,13.3,1505.2,355.7,-0.7,1.8,2471.621,13.29,0.05,155.5
2023-09-30T07:55:03,42.805,6.029,0.029,-0.057,-0.033,102.0,102.0,102.0,13.3,1505.2,347.0,-0.8,1.8,2471.582,13.29,0.063,153.0
2023-09-30T07:58:03,42.805,6.029,0.034,-0.055,-0.056,102.0,102.0,101.0,13.4,1505.2,354.6,-0.8,1.8,2471.576,13.29,0.064,148.3
2023-09-30T08:04:03,42.805,6.029,0.069,-0.049,-0.038,102.0,102.0,102.0,13.4,1505.2,327.8,-0.8,1.8,2471.627,13.28,0.084,125.4
2023-09-30T08:07:03,42.805,6.029,0.019,-0.057,-0.026,102.0,102.0,101.0,13.4,1505.2,354.5,-0.8,1.8,2471.662,13.28,0.06,161.6
2023-09-30T08:10:03,42.805,6.029,0.036,-0.057,-0.03,101.0,101.0,102.0,13.4,1505.2,347.7,-0.8,1.8,2471.634,13.28,0.067,147.7
2023-09-30T08:13:03,42.805,6.029,0.042,-0.044,-0.055,102.0,102.0,101.0,13.4,1505.2,335.4,-0.8,1.8,2471.59,13.29,0.06,136.3
2023-09-30T08:16:03,42.805,6.029,0.038,-0.046,-0.013,103.0,101.0,101.0,13.4,1505.2,349.3,-0.8,1.8,2471.608,13.29,0.059,140.4
2023-09-30T08:19:03,42.805,6.029,0.048,-0.067,-0.047,103.0,101.0,102.0,13.4,1505.2,340.2,-0.8,1.8,2471.608,13.29,0.082,144.4
2023-09-30T08:22:03,42.805,6.029,0.057,-0.059,-0.034,101.0,103.0,101.0,13.3,1505.2,345.9,-0.8,1.8,2471.607,13.29,0.082,136.0
2023-09-30T08:25:03,42.805,6.029,0.036,-0.033,-0.029,102.0,102.0,101.0,13.4,1505.2,344.8,-0.8,1.8,2471.581,13.29,0.048,132.5
2023-09-30T08:28:03,42.805,6.029,0.022,-0.068,-0.05,102.0,102.0,101.0,13.4,1505.2,344.4,-0.8,1.8,2471.577,13.29,0.071,162.1
2023-09-30T08:31:03,42.805,6.029,0.027,-0.038,-0.003,101.0,102.0,100.0,13.4,1505.2,343.6,-0.8,1.8,2471.6,13.29,0.046,144.6
2023-09-30T08:34:03,42.805,6.029,0.033,-0.056,-0.046,102.0,102.0,101.0,13.4,1505.2,352.0,-0.7,1.8,2471.589,13.29,0.064,149.5
2023-09-30T08:37:03,42.805,6.029,0.056,-0.066,-0.037,102.0,102.0,102.0,13.4,1505.2,339.8,-0.7,1.8,2471.58,13.29,0.086,139.7
2023-09-30T08:40:03,42.805,6.029,0.034,-0.064,-0.057,102.0,102.0,101.0,13.4,1505.2,355.8,-0.8,1.8,2471.553,13.29,0.072,152.0
2023-09-30T08:43:03,42.805,6.029,0.03,-0.041,-0.034,102.0,101.0,101.0,13.3,1505.2,341.5,-0.8,1.8,2471.593,13.29,0.05,143.8
2023-09-30T08:46:03,42.805,6.029,0.031,-0.04,-0.025,102.0,102.0,101.0,13.3,1505.2,337.3,-0.8,1.8,2471.58,13.29,0.05,142.2
2023-09-30T08:49:03,42.805,6.029,0.038,-0.052,-0.034,102.0,103.0,101.0,13.3,1505.2,336.1,-0.8,1.8,2471.584,13.29,0.064,143.8
2023-09-30T08:52:03,42.805,6.029,0.031,-0.028,-0.02,102.0,101.0,101.0,13.4,1505.2,343.9,-0.8,1.8,2471.561,13.29,0.041,132.1
2023-09-30T08:55:02,42.805,6.029,0.063,-0.036,-0.027,102.0,102.0,101.0,13.4,1505.2,340.2,-0.7,1.8,2471.535,13.29,0.072,119.7
2023-09-30T08:58:02,42.805,6.029,0.036,-0.052,0.005,101.0,102.0,101.0,13.3,1505.2,347.7,-0.8,1.8,2471.545,13.29,0.063,145.3
2023-09-30T09:04:02,42.805,6.029,0.026,-0.03,-0.038,102.0,101.0,101.0,13.4,1505.2,338.8,-0.8,1.8,2471.584,13.28,0.039,139.1
2023-09-30T09:07:02,42.805,6.029,0.013,-0.06,-0.078,103.0,102.0,101.0,13.4,1505.2,349.3,-0.8,1.8,2471.589,13.28,0.061,167.8
2023-09-30T09:10:02,42.805,6.029,0.038,-0.017,0.009,102.0,102.0,101.0,13.4,1505.2,347.1,-0.7,1.8,2471.584,13.28,0.041,114.1
2023-09-30T09:13:02,42.805,6.029,0.033,-0.048,0.013,101.0,102.0,101.0,13.4,1505.2,349.9,-0.8,1.8,2471.564,13.28,0.058,145.5
2023-09-30T09:16:02,42.805,6.029,0.039,-0.055,-0.008,102.0,101.0,102.0,13.4,1505.2,348.6,-0.7,1.8,2471.559,13.29,0.067,144.7
2023-09-30T09:19:02,42.805,6.029,0.065,-0.035,-0.008,102.0,102.0,102.0,13.4,1505.2,332.5,-0.7,1.8,2471.561,13.29,0.073,118.3
2023-09-30T09:22:02,42.805,6.029,0.038,-0.042,-0.026,101.0,103.0,101.0,13.4,1505.2,345.7,-0.8,1.8,2471.571,13.29,0.056,137.9
2023-09-30T09:25:02,42.805,6.029,0.022,-0.061,-0.049,102.0,102.0,100.0,13.4,1505.2,347.4,-0.8,1.8,2471.562,13.29,0.064,160.2
2023-09-30T09:28:02,42.805,6.029,0.038,-0.045,-0.024,102.0,102.0,102.0,13.4,1505.2,347.5,-0.7,1.8,2471.561,13.29,0.058,139.8
2023-09-30T09:31:02,42.805,6.029,0.04,-0.051,-0.034,101.0,101.0,101.0,13.4,1505.2,350.5,-0.8,1.8,2471.553,13.29,0.064,141.9
2023-09-30T09:34:02,42.805,6.029,0.038,-0.055,-0.069,101.0,103.0,101.0,13.4,1505.2,345.4,-0.8,1.9,2471.608,13.29,0.066,145.4
2023-09-30T09:37:02,42.805,6.029,0.021,-0.041,-0.025,102.0,101.0,101.0,13.4,1505.2,349.1,-0.7,1.8,2471.551,13.29,0.046,152.9
2023-09-30T09:40:02,42.805,6.029,0.028,-0.043,-0.01,102.0,101.0,102.0,13.3,1505.2,358.0,-0.7,1.8,2471.574,13.29,0.051,146.9
2023-09-30T09:43:02,42.805,6.029,0.025,-0.043,-0.044,102.0,102.0,102.0,13.3,1505.2,346.6,-0.8,1.8,2471.524,13.29,0.049,149.8
2023-09-30T09:46:02,42.805,6.029,0.052,-0.048,0.006,104.0,102.0,101.0,13.4,1505.2,340.8,-0.8,1.8,2471.532,13.29,0.07,132.7
2023-09-30T09:49:02,42.805,6.029,0.049,-0.058,-0.014,102.0,103.0,101.0,13.4,1505.2,338.0,-0.8,1.8,2471.538,13.29,0.075,139.8
2023-09-30T09:52:02,42.805,6.029,0.039,-0.033,-0.001,102.0,102.0,101.0,13.3,1505.2,344.3,-0.8,1.8,2471.54,13.29,0.051,130.2